Faro current weather conditions

sailwx.info

Wind from 100 at 8 knots

Air temperature 23.0° C
Dewpoint 17.0° C

Last reported at 2014-Oct-30 17:00 UTC.
Time now 2014-Oct-30 18:56 UTC

Location: N 37°01' W 007°58'.
View on Google Maps.

See reports from other nearby stations

  
Tides and Currents Weather Stations Pressure Air Temp Water Temp Dewpoint Dewpoint Depression Visibility Wind Speed Wind Dir Waves Ship Positions
date/time (UTC)wind fromknots sea level pressurealtimeterstation pressurevisibilityair tempwater tempwave heightnotes
2014-Oct-30 17:00 100 8 23.0
2014-Oct-30 16:30 100 9 23.0
2014-Oct-30 16:00 100 8 24.0
2014-Oct-30 15:30 100 9 24.0
2014-Oct-30 15:00 090 10 24.0
2014-Oct-30 14:30 090 10 23.0
2014-Oct-30 14:00 100 13 23.0
2014-Oct-30 13:30 100 12 23.0
2014-Oct-30 13:00 090 13 23.0
2014-Oct-30 12:30 090 13 23.0
2014-Oct-30 12:00 100 14 23.0
2014-Oct-30 11:30 090 13 22.0
2014-Oct-30 11:00 090 12 22.0
2014-Oct-30 10:30 090 12 22.0
2014-Oct-30 10:00 090 12 22.0
2014-Oct-30 09:30 080 13 21.0
2014-Oct-30 09:00 080 12 21.0
2014-Oct-30 08:30 080 11 20.0
2014-Oct-30 08:00 080 10 20.0
2014-Oct-30 07:30 070 10 19.0
2014-Oct-30 07:00 080 10 19.0
2014-Oct-30 06:30 080 11 19.0
2014-Oct-30 06:00 080 10 20.0
2014-Oct-30 05:30 080 7 19.0
2014-Oct-30 05:00 080 7 19.0
2014-Oct-30 04:30 080 6 19.0
2014-Oct-30 04:00 070 6 19.0
2014-Oct-30 03:30 080 8 19.0
2014-Oct-30 03:00 080 9 19.0
2014-Oct-30 02:30 070 7 19.0
2014-Oct-30 02:00 060 6 19.0
2014-Oct-30 01:30 070 8 19.0
2014-Oct-30 01:00 060 6 19.0
2014-Oct-30 00:30 070 6 19.0
2014-Oct-30 00:00 080 7 20.0
2014-Oct-29 23:30 070 6 20.0
2014-Oct-29 23:00 070 8 20.0
2014-Oct-29 22:30 070 7 20.0
2014-Oct-29 22:00 040 6 20.0
2014-Oct-29 21:30 080 6 21.0
2014-Oct-29 21:00 060 6 20.0
2014-Oct-29 20:30 050 5 20.0
2014-Oct-29 20:00 060 6 21.0
2014-Oct-29 19:30 070 5 21.0
2014-Oct-29 19:00 070 6 21.0
2014-Oct-29 18:30 070 6 22.0
2014-Oct-29 18:00 080 8 22.0
2014-Oct-29 17:30 080 11 22.0
2014-Oct-29 17:00 090 10 23.0
2014-Oct-29 16:30 090 10 23.0
2014-Oct-29 16:00 090 11 23.0
2014-Oct-29 15:30 090 11 23.0
2014-Oct-29 15:00 100 12 23.0
2014-Oct-29 14:30 100 12 24.0
2014-Oct-29 14:00 100 12 24.0
2014-Oct-29 13:30 100 12 23.0
2014-Oct-29 13:00 100 13 24.0
2014-Oct-29 12:30 090 13 23.0
2014-Oct-29 12:00 100 14 23.0
2014-Oct-29 11:30 100 12 5.423.0
2014-Oct-29 11:00 090 12 23.0
2014-Oct-29 10:30 090 11 22.0
2014-Oct-29 10:00 080 10 5.422.0
2014-Oct-29 09:30 080 9 5.422.0
2014-Oct-29 09:00 080 9 5.421.0
2014-Oct-29 08:30 080 8 5.420.0
2014-Oct-29 08:00 070 10 5.420.0
2014-Oct-29 07:30 070 10 5.419.0
2014-Oct-29 07:00 080 8 5.419.0
2014-Oct-29 06:30 080 9 19.0
2014-Oct-29 06:00 070 10 19.0
2014-Oct-29 05:30 090 14 20.0
2014-Oct-29 05:00 090 11 20.0
2014-Oct-29 04:30 060 10 19.0
2014-Oct-29 04:00 080 10 20.0
2014-Oct-29 03:30 070 11 20.0
2014-Oct-29 03:00 070 11 20.0
2014-Oct-29 02:30 050 11 5.420.0
2014-Oct-29 02:00 060 8 5.420.0
2014-Oct-29 01:30 080 6 5.420.0
2014-Oct-29 01:00 050 6 5.420.0
2014-Oct-29 00:30 080 8 20.0
2014-Oct-29 00:00 070 9 20.0
2014-Oct-28 23:30 080 9 20.0
2014-Oct-28 23:00 080 11 21.0
2014-Oct-28 22:30 090 9 21.0
2014-Oct-28 22:00 090 10 21.0
2014-Oct-28 21:30 080 7 21.0
2014-Oct-28 21:00 080 6 21.0
2014-Oct-28 20:30 080 7 21.0
2014-Oct-28 20:00 090 10 21.0
2014-Oct-28 19:30 090 9 22.0
2014-Oct-28 19:00 090 10 22.0
2014-Oct-28 18:30 090 10 22.0
2014-Oct-28 18:00 090 11 22.0